P/2004 T1 ( LINEAR-NEAT )

Japanese version
Home page
Updated on July 5, 2017

---------------------------------------------------------------------

* Profile

Discovery Date October 5, 2004
Magnitude 17.2 and 15.2 mag
Discoverer Lincoln Laboratory Near-Earth Asteroid Research project, Near-Earth-Asteroid Tracking Team (Jet Propulsion Laboratory)

* Pictures

* Orbital Elements

Epoch 2004 Nov. 11.0 TT = JDT 2453320.5
T 2004 Nov. 7.76696 TT                                  MPCW
q   1.7095509            (2000.0)            P               Q
n   0.15235568     Peri.  336.52202     +0.87732764     -0.45592833
a   3.4718712      Node    51.46034     +0.46503560     +0.73067035
e   0.5075996      Incl.   11.03771     +0.11848246     +0.50818324
P   6.47
From 424 observations 2004 July 16-2017 June 22, mean residual 0".6.

* Finding Charts

* Magnitudes Graph

        m1 = 6.5 + 5 log d + 35 log r(t + 25)

---------------------------------------------------------------------

The orbital elements are published on M.P.E.C. 2017-M40.
The charts are made with StellaNavigator Ver.2.0 for Windows (AstroArts / ASCII).
The magnitudes graphs are made with Comet for Windows.

---------------------------------------------------------------------

Copyright(C) Seiichi Yoshida (comet@aerith.net). All rights reserved.